Location: Morrison Observatory
(41.7012°N, 86.2315°W)
Time: 08:18:26
(UTC-05:00)

Daily predictions for brighter satellites

Satellite Brightness Start Highest point End
(mag) Time Altitude Azimuth Time Altitude Azimuth Time Altitude Azimuth
Cosmos 1125 Rocket 3.5 18:10:20 10° NNW 18:15:30 59° ENE 18:20:36 10° SSE
CENTAUR R/B 3.3 18:10:44 10° SW 18:16:43 53° NW 18:23:30 10° NNE
CZ-2C R/B 2.7 18:13:10 10° S 18:18:09 78° WSW 18:23:00 10° NNW
YAOGAN 1 2.5 18:15:18 10° SSE 18:19:37 83° ENE 18:23:59 10° N
COSMO-SKYMED 1 3.3 18:15:53 10° NNE 18:19:50 33° E 18:23:45 10° SSE
USA 116 3.2 18:16:57 10° N 18:20:08 82° WNW 18:23:12 10° SSW
Cosmos 841 Rocket 4.1 18:18:08 10° SSW 18:23:21 62° WNW 18:28:35 10° NNE
Thor Agena Rocket 3.6 18:19:20 10° NNE 18:24:36 80° ESE 18:29:46 10° SSW
Cosmos 2360 Rocket 4.3 18:22:25 10° WSW 18:26:46 22° NW 18:31:07 10° N
SPOT 3 Rocket 3.7 18:21:47 10° SSE 18:26:56 83° WSW 18:32:08 10° NNW
MSX 3.8 18:21:42 10° SSE 18:27:26 85° ENE 18:33:11 10° NNW
Lacrosse 5 rocket 1.3 18:24:45 10° NW 18:28:26 52° NE 18:32:19 10° ESE
Resurs 01 Rocket 3.5 18:27:17 10° ENE 18:28:27 11° ENE 18:29:38 10° NE
Cosmos 1980 3.7 18:25:09 10° SSW 18:30:49 76° ESE 18:36:30 10° NNE
COSMOS 2441 4.3 18:26:30 10° SSE 18:31:22 80° ENE 18:36:14 10° N
CORIOLIS 4.5 18:29:14 10° S 18:34:33 74° WSW 18:39:56 10° NNW
Cosmos 2151 2.9 18:32:18 10° S 18:36:27 66° E 18:40:38 10° NNE
Cosmos 2228 Rocket 4.3 18:33:15 10° NNW 18:37:29 46° W 18:41:44 10° SSW
Cosmos 2279 Rocket 4.1 18:33:53 10° N 18:40:00 57° E 18:46:07 10° SSE
Cosmos 44 3.5 18:37:51 10° SW 18:43:07 81° WNW 18:48:11 10° NNE
Cosmos 1328 4.0 18:39:12 10° SSW 18:43:07 75° W 18:47:05 10° N
CZ-4 R/B 3.5 18:42:36 10° SSW 18:46:03 30° W 18:49:32 10° NNW
ALOS 3.6 18:44:07 10° ESE 18:47:21 19° ENE 18:50:37 10° NNE
IDEFIX/ARIANE 42P 4.1 18:44:47 10° SSW 18:49:39 40° W 18:54:34 10° NNW
SKYMED 3 4.5 18:45:36 10° NNE 18:49:57 72° E 18:54:17 10° S
Cosmos 2333 Rocket 2.6 18:44:27 10° SW 18:50:03 65° WNW 18:55:42 10° NNE
NOAA 12 4.4 18:45:10 10° SE 18:50:06 44° ENE 18:55:04 10° N
Cosmos 2219 Rocket 3.1 18:45:55 10° SW 18:51:22 49° WNW 18:56:51 10° NNE
Cosmos 1626 2.9 18:50:54 10° SSE 18:54:13 31° E 18:56:50 14° NE
Cosmos 1151 Rocket 3.7 18:53:56 10° NNW 18:58:08 58° W 19:02:21 10° S
SJ-6B 3.4 18:55:17 10° SE 18:59:02 37° ENE 19:02:51 10° N
Aureole 2 Rocket 2.7 18:56:12 10° SSW 18:59:55 85° WNW 19:04:00 10° NNE
Nadezhda 4 Rocket 4.3 18:54:24 10° SSE 19:00:13 42° E 19:06:05 10° NNE
Cosmos 2278 Rocket 2.7 18:56:30 10° NNW 19:02:07 64° WSW 19:07:43 10° S
Cosmos 1703 3.3 18:58:43 10° S 19:02:31 54° E 19:06:20 10° NNE
Cosmos 2180 Rocket 4.4 18:58:33 10° N 19:04:43 73° E 19:10:56 10° SSE
Cosmos 1455 2.7 19:02:26 10° N 19:05:56 34° ENE 19:09:26 10° SE
FAST Rocket 4.3 19:04:18 10° SSE 19:06:46 38° E 19:06:50 38° E
SKYMED 2 3.8 19:03:39 10° N 19:07:59 72° WNW 19:12:18 10° SSW
Cosmos 1805 Rocket 3.5 19:04:06 10° S 19:08:31 67° E 19:12:58 10° NNE
Cosmos 1726 3.7 19:06:00 10° NNW 19:09:31 38° W 19:13:01 10° SSW
Lacrosse 4 Rocket 2.6 19:09:30 10° N 19:12:09 22° NE 19:12:09 22° NE
Cosmos 773 Rocket 4.4 19:12:28 10° S 19:17:12 39° ESE 19:19:20 27° NE
FREGAT/IRIS 2.6 19:16:07 10° SSE 19:19:07 56° ENE 19:22:08 10° N
Cosmos 1092 Rocket 4.3 19:14:37 10° SSE 19:20:33 44° E 19:26:30 10° NNE
Sich 1 3.0 19:21:30 10° S 19:25:54 67° E 19:29:41 14° NNE
Cosmos 2237 Rocket 3.3 19:21:19 10° SW 19:26:38 43° WNW 19:32:02 10° NNE
Cosmos 1340 Rocket 3.6 19:22:56 10° SSW 19:26:47 51° WNW 19:30:38 10° N
Abrixas 3.1 19:24:19 10° W 19:27:09 43° NNW 19:27:16 43° NNW
USA 215 3.2 19:21:36 15° ESE 19:27:14 75° NE 19:33:47 10° NW
Cosmos 2369 Rocket 3.8 19:27:02 10° N 19:29:27 17° NNE 19:29:27 17° NNE
Cosmos 2058 4.4 19:27:30 10° SW 19:31:18 37° WNW 19:35:08 10° N
Cosmos 1461 2.9 19:27:45 10° SW 19:31:56 75° WNW 19:33:36 35° NNE
Cosmos 1633 Rocket 2.9 19:29:00 10° S 19:33:22 71° E 19:36:07 22° NNE
SL-16 R/B 2.2 19:27:45 10° SSW 19:33:25 85° WNW 19:37:58 16° NNE
Cosmos 304 Rocket 4.5 19:36:11 10° SW 19:40:53 53° WNW 19:45:06 13° N
BREEZE-M DEB (TANK) 3.2 19:42:18 10° WSW 19:44:01 40° WNW 19:44:01 40° WNW
Cosmos 2297 4.2 19:39:11 10° NNW 19:44:48 61° WSW 19:50:26 10° S
Lacrosse 5 3.9 19:47:09 10° NNW 19:49:54 14° N 19:50:06 14° N
BREEZE-M DEB (TANK) 4.0 19:50:48 10° WNW 19:51:39 17° WNW 19:51:39 17° WNW
Cosmos 1356 Rocket 4.1 19:49:05 10° SSW 19:52:57 49° WNW 19:55:25 20° N
CZ-3A R/B 2.8 19:54:09 10° NW 19:58:45 82° SW 20:01:31 32° SE
Aureole 1 Rocket 3.8 19:55:33 10° SSW 20:00:51 89° ESE 20:05:29 22° NNE
Spot 2 Rocket 3.4 19:58:17 10° SSE 20:03:21 88° WSW 20:08:25 10° NNW
CZ-4C R/B 4.3 19:59:20 10° NNW 20:02:59 18° NNE 20:02:59 18° NNE
Resurs 01 Rocket 1.6 20:03:49 70° SSW 20:04:16 80° WSW 20:08:44 10° NNW
Lacrosse 5 rocket 3.9 20:04:41 10° W 20:07:22 18° SW 20:10:10 10° SSW
FENGYUN 3A 3.7 20:03:23 10° S 20:08:44 76° WSW 20:14:08 10° NNW
USA 229 DEB 3.6 20:03:28 10° SSW 20:10:20 84° ESE 20:12:13 52° NE
USA 229 3.6 20:03:34 10° SSW 20:10:26 84° ESE 20:12:16 53° NE
Cosmos 1627 Rocket 4.3 20:11:55 10° S 20:18:05 79° E 20:18:21 77° ENE
Iridium 4 Rocket 3.8 20:14:57 10° SSW 20:19:22 50° W 20:19:41 49° WNW
ALOS 3.2 20:19:57 10° S 20:24:26 46° W 20:28:57 10° NNW
Cosmos 923 Rocket 4.3 20:20:21 10° SSW 20:24:48 62° SW 20:24:48 62° SW
ATLAS 5 CENTAUR R/B 4.2 20:21:36 10° NNW 20:23:24 17° N 20:23:24 17° N
Cosmos 1603 4.1 20:32:23 10° SSW 20:36:59 57° WSW 20:36:59 57° WSW
Lacrosse 4 Rocket 4.2 20:47:55 10° NW 20:48:34 14° NW 20:48:34 14° NW
Cosmos 2369 Rocket 4.4 21:10:01 10° NNW 21:11:17 17° NNW 21:11:17 17° NNW
